Location: Newark
(52.3735°N, 16.9806°E)
Time: 04:11:47
(UTC+00:00)

LilacSat-2 - Pass Details

Date: 28 November 2021
Orbit: 511 x 532 km, 97.5° (Epoch: 16 January)

Event Time Altitude Azimuth Distance (km) Brightness Sun altitude
Rises 17:09:38 0° 219° (SW) 2,624 ? -21.2°
Reaches altitude 10° 17:13:10 10° 255° (WSW) 1,750 ? -21.8°
Maximum altitude 17:14:22 11° 274° (W) 1,676 ? -21.9°
Drops below altitude 10° 17:15:35 10° 292° (WNW) 1,759 ? -22.1°
Sets 17:19:10 0° 328° (NNW) 2,662 ? -22.7°
